Hourly Data Report for December 03, 2017

VICTORIA UNIVERSITY CS
BRITISH COLUMBIA

48°27'25.200" N
123°18'16.600" W
60.10 m
1018598
71783
WYJ

Download Data

Hourly Data (December 2017)
Hourly Data Report for December 3, 2017
TIME
LST
Temp Definition
°C
Dew Point Definition
°C
Rel Hum Definition
%
Precip. Amount Definition
mm

Wind Dir Definition
10's deg

Wind Spd Definition
km/h
Visibility Definition
km
Stn Press Definition
kPa
Hmdx Definition


Wind Chill Definition


Weather Definition


00:00 5.1 2.2 81 0.0 34 10   100.54     LegendNANA
01:00 4.7 1.7 81 0.0 32 6   100.58     LegendNANA
02:00 4.7 1.9 82 0.0 32 6   100.64     LegendNANA
03:00 4.1 2.2 88 0.0 30 4   100.75     LegendNANA
04:00 3.7 1.6 86 0.0 1 6   100.81     LegendNANA
05:00 3.5 1.1 84 0.0 34 7   100.89     LegendNANA
06:00 4.0 0.8 80 0.0 35 7   100.98     LegendNANA
07:00 3.6 0.2 78 0.0 36 5   101.05     LegendNANA
08:00 2.7 -0.1 82 0.0 30 3   101.13     LegendNANA
09:00 3.5 0.0 78 0.0 35 6   101.24     LegendNANA
10:00 4.2 0.5 77 0.0 36 6   101.36     LegendNANA
11:00 5.2 0.8 73 0.0 36 7   101.45     LegendNANA
12:00 6.8 1.6 69 0.0 36 10   101.52     LegendNANA
13:00 6.2 1.3 71 0.0 2 6   101.54     LegendNANA
14:00 6.1 1.2 71 0.0 1 4   101.60     LegendNANA
15:00 5.6 1.1 72 0.0 1 3   101.72     LegendNANA
16:00 4.9 1.3 78 0.0   0   101.78     LegendNANA
17:00 2.4 0.9 90 0.0   0   101.82     LegendNANA
18:00 3.1 2.0 93 0.0 1 2   101.90     LegendNANA
19:00 3.3 1.9 91 0.0   0   101.97     LegendNANA
20:00 2.4 1.5 94 0.0 33 1   102.09     LegendNANA
21:00 2.1 1.0 92 0.0 31 2   102.13     LegendNANA
22:00 4.0 1.9 86 0.0 33 5   102.23     LegendNANA
23:00 3.6 -0.5 75 0.0 33 2   102.34     LegendNANA

Notes on Data Quality.

Legend

  • E = Estimated
  • M = Missing
  • NA = Not Available*
  • [empty] = Indicates an unobserved value
Date modified: